{"data":{"norad_id":68562,"epoch":"2026-05-25T00:51:50.088096Z","epoch_age_seconds":65104,"freshness":"FRESH","line1":"1 68562U 26070W   26145.03599639  .00010921  00000+0  33394-3 0  9991","line2":"2 68562  53.1597   7.2352 0001153  90.9806 269.1328 15.34395624  8258","mean_motion":15.34395624,"eccentricity":0.0001153,"inclination_deg":53.1597,"raan_deg":7.2352,"arg_perigee_deg":90.9806,"mean_anomaly_deg":269.1328,"bstar":0.00033394,"rev_number":825,"period_min":93.84802572925,"perigee_km":461.92749625288,"apogee_km":463.50499701155,"semimajor_km":6840.8532466322,"source":"CELESTRAK","updated_at":"2026-05-25T13:38:21.963810Z"}}